Lapse_Rate
7.2 8.0 7.6 7.1 6.8 7.8 7.5 7.5 7.8 8.1 8.1 7.9 7.0 6.3 6.2 6.1 6.1 5.9 5.8 6.4 6.8 6.4 6.8 6.8 7.5 7.8 7.8 7.6 7.1 7.4 7.9 7.9 7.6 7.5 7.3 7.1 7.0 6.9 6.8 7.0 7.0 6.8 6.5 6.4
7.0 7.3 7.5 7.2 7.5 8.0 8.1 8.0 7.9 8.0 8.2 7.2 6.5 6.6 6.1 6.1 5.6 5.7 5.8 6.0 6.4 6.8 6.7 6.4 6.2 7.1 6.9 6.6 6.4 6.5 7.1 7.6 7.4 7.2 7.2 6.9 6.8 6.7 6.7 6.6 6.6 6.5 6.5 6.7
6.8 7.5 7.5 7.1 7.6 7.8 8.2 8.2 8.0 7.8 7.1 6.7 6.4 6.2 6.2 6.3 6.1 5.7 5.5 5.9 5.9 6.3 6.7 6.7 6.7 6.4 6.6 6.8 6.7 6.5 6.6 6.6 6.5 6.6 6.7 6.6 6.4 6.4 6.4 6.4 6.3 6.2 6.2 6.4
6.1 7.6 7.9 8.0 8.1 8.7 8.2 8.1 7.4 7.1 6.5 6.4 6.2 6.1 6.2 6.2 6.0 5.9 5.6 5.5 5.6 5.5 6.0 6.1 6.3 6.4 6.5 6.5 6.7 6.5 6.6 6.8 6.4 6.4 6.3 6.3 6.1 6.1 6.2 6.1 6.0 5.9 6.0 5.8
6.9 8.6 8.3 8.5 7.9 8.1 8.1 7.2 6.6 6.4 6.2 6.2 6.3 6.0 6.1 5.9 5.9 5.7 5.4 5.2 5.4 4.5 4.6 5.3 5.8 5.8 6.2 6.2 6.1 6.2 6.4 6.3 6.0 6.1 6.0 6.1 6.3 5.8 5.7 5.9 6.1 6.1 6.0 5.9
6.8 8.0 8.4 7.8 7.7 7.4 7.6 7.5 6.6 6.7 6.7 6.4 6.3 5.7 5.8 6.0 6.0 5.8 5.5 5.4 5.3 5.3 4.5 3.6 3.3 3.9 4.2 5.0 4.8 5.1 5.7 5.8 4.1 5.5 5.8 5.9 5.8 5.8 5.2 6.0 6.1 6.2 6.3 6.2
7.3 8.4 8.2 7.1 7.4 7.7 7.8 6.7 6.6 6.7 6.6 6.6 6.2 6.1 6.1 6.0 6.0 5.5 5.2 5.3 5.2 5.1 4.8 4.7 4.3 3.8 4.0 3.8 3.9 4.0 4.1 3.7 3.9 4.3 4.0 4.2 4.3 5.1 5.5 5.7 5.9 6.2 6.1 6.1
8.0 8.2 8.2 7.6 7.3 7.4 6.7 6.5 6.6 6.5 6.6 6.6 6.5 6.3 6.1 5.8 6.0 5.3 5.1 5.0 4.9 4.8 4.7 4.7 4.7 4.6 4.2 4.0 3.9 4.1 4.1 3.5 3.7 3.8 3.9 3.8 4.2 5.0 5.3 5.6 5.8 5.8 5.6 5.8
7.4 7.0 7.3 7.4 7.2 7.0 6.9 6.8 6.6 6.4 6.2 6.2 6.2 5.9 5.8 5.5 5.3 5.3 5.1 5.0 5.1 5.2 4.9 4.7 4.6 4.4 4.5 4.7 4.5 4.6 4.8 4.7 4.0 3.7 4.1 4.2 4.0 4.6 4.9 5.1 5.5 5.7 5.5 5.7
7.2 7.3 7.4 7.2 6.9 6.5 6.6 6.6 6.3 6.3 6.2 5.8 5.6 5.7 5.4 5.2 5.3 5.5 5.4 5.4 5.4 5.0 4.8 5.1 5.2 5.3 5.4 5.4 5.4 5.3 5.3 5.3 5.3 5.3 5.3 5.1 5.1 5.2 5.4 5.5 5.8 5.8 5.8 5.6
6.9 7.1 6.8 6.6 6.3 6.2 6.4 6.5 6.2 6.2 6.0 5.6 5.8 5.7 5.4 5.2 5.2 5.1 5.2 5.4 5.4 5.0 5.3 5.5 5.6 5.7 5.6 5.5 5.5 5.4 5.4 5.4 5.4 5.4 5.4 5.5 5.6 5.8 5.9 5.9 5.8 5.8 5.8 5.8
6.8 6.7 6.7 6.6 6.4 6.6 6.7 6.5 6.3 6.3 5.9 5.6 5.6 5.6 5.6 5.4 5.4 5.3 5.5 5.3 5.5 5.6 5.4 5.5 5.7 5.7 5.7 5.6 5.7 5.6 5.7 5.6 5.7 5.7 5.7 5.7 5.9 6.0 5.9 5.7 5.5 5.3 5.2 5.1
7.0 6.8 6.4 6.5 6.4 6.5 6.5 6.5 6.5 6.5 6.3 5.9 5.8 5.9 5.6 5.5 5.4 5.3 5.3 5.3 5.2 5.3 5.4 5.6 5.8 5.8 5.7 5.7 5.6 5.7 5.6 5.6 5.6 5.7 5.6 5.6 5.5 5.4 5.3 5.2 5.0 4.9 4.8 4.8
6.3 6.3 6.4 6.5 6.3 6.4 6.3 6.3 6.4 6.3 6.2 6.4 6.3 6.1 6.0 5.9 5.8 5.7 5.5 5.4 5.2 5.3 5.3 5.4 5.4 5.6 5.5 5.6 5.6 5.6 5.5 5.4 5.2 5.1 5.1 5.1 5.0 4.9 4.8 4.8 4.7 4.7 4.7 4.7
6.4 6.3 6.4 6.4 6.3 6.3 6.3 6.3 6.4 6.5 6.6 6.6 6.5 6.4 6.3 6.1 6.0 5.9 5.8 5.7 5.6 5.5 5.4 5.5 5.5 5.4 5.4 5.3 5.1 5.1 5.1 5.1 5.0 4.9 4.8 4.8 4.7 4.6 4.6 4.6 4.6 4.7 4.6 4.6
6.4 6.4 6.4 6.4 6.5 6.5 6.5 6.5 6.5 6.5 6.6 6.6 6.6 6.4 6.2 6.1 6.0 6.0 5.8 5.8 5.7 5.5 5.4 5.3 5.3 5.2 5.2 5.2 5.1 5.0 4.8 4.7 4.5 4.4 4.4 4.3 4.2 4.2 4.2 4.2 4.3 4.3 4.4 4.4
6.4 6.4 6.5 6.6 6.8 6.7 6.6 6.6 6.5 6.5 6.4 6.4 6.3 6.3 6.3 6.2 6.0 5.8 5.7 5.5 5.4 5.3 5.1 5.0 4.8 4.7 4.7 4.7 4.5 4.4 4.3 4.3 4.3 4.3 4.3 4.3 4.3 4.3 4.3 4.3 4.3 4.4 4.4 4.3
6.5 6.7 6.8 6.8 6.8 6.8 6.7 6.6 6.5 6.5 6.4 6.2 6.1 6.0 5.8 5.6 5.5 5.4 5.3 5.2 5.1 4.9 4.8 4.6 4.5 4.4 4.4 4.3 4.2 4.2 4.2 4.2 4.2 4.3 4.3 4.4 4.5 4.5 4.6 4.6 4.6 4.5 4.5 4.4
6.5 6.5 6.5 6.5 6.4 6.4 6.3 6.2 6.1 6.0 6.0 5.9 5.7 5.6 5.4 5.2 5.0 4.9 4.8 4.7 4.7 4.6 4.6 4.6 4.4 4.4 4.3 4.3 4.3 4.3 4.4 4.4 4.5 4.6 4.5 4.5 4.6 4.6 4.6 4.6 4.6 4.7 4.6 4.5
6.4 6.5 6.5 6.5 6.5 6.5 6.4 6.3 6.1 6.0 5.8 5.6 5.5 5.3 5.2 5.1 5.0 4.8 4.7 4.6 4.5 4.5 4.5 4.6 4.7 4.7 4.6 4.7 4.7 4.7 4.8 4.8 4.7 4.7 4.7 4.7 4.6 4.6 4.6 4.6 4.7 4.7 4.6 4.4
6.5 6.4 6.6 6.6 6.4 6.2 5.9 5.7 5.6 5.4 5.3 5.2 5.1 5.0 4.9 4.8 4.8 4.7 4.8 4.8 4.8 4.8 4.8 4.9 4.9 5.0 4.9 4.9 4.9 4.9 4.8 4.8 4.8 4.7 4.7 4.7 4.6 4.6 4.5 4.3 4.2 4.1 4.1 4.0
6.6 6.5 6.2 5.8 5.6 5.3 5.2 5.0 5.0 4.9 4.8 4.8 4.8 4.8 4.8 4.8 4.7 4.7 4.7 4.8 4.8 4.8 4.9 4.9 4.9 4.9 4.9 4.9 5.0 4.9 4.9 4.9 4.9 4.8 4.8 4.7 4.6 4.5 4.3 4.3 4.2 4.0 3.9 3.7
6.0 5.7 5.4 5.3 5.1 4.9 4.8 4.7 4.7 4.7 4.7 4.7 4.7 4.8 4.8 4.8 4.9 4.9 5.0 4.9 5.0 5.0 5.1 5.1 5.1 5.1 5.1 5.1 5.1 5.0 5.0 4.9 4.8 4.6 4.4 4.3 4.2 4.2 4.1 4.0 3.9 3.8 3.7 3.7
5.4 5.2 5.1 5.0 5.0 4.9 4.9 4.9 5.0 5.0 5.1 5.2 5.3 5.3 5.2 5.2 5.2 5.1 5.2 5.2 5.1 5.1 5.1 5.1 5.0 5.0 4.9 4.9 4.8 4.7 4.6 4.5 4.4 4.4 4.3 4.2 4.1 4.0 3.9 3.9 3.8 3.8 3.8 3.8
5.0 4.9 4.8 4.7 4.8 4.8 5.0 5.1 5.3 5.4 5.5 5.6 5.5 5.5 5.4 5.4 5.4 5.4 5.2 5.1 5.0 4.9 4.8 4.7 4.6 4.6 4.5 4.5 4.5 4.4 4.4 4.3 4.2 4.2 4.2 4.1 4.1 4.0 4.0 4.0 4.0 4.1 4.3 4.5
5.0 4.9 5.0 5.1 5.2 5.3 5.5 5.6 5.6 5.6 5.6 5.6 5.6 5.5 5.4 5.3 5.2 5.1 5.0 5.0 4.9 4.8 4.8 4.7 4.6 4.6 4.6 4.5 4.5 4.5 4.5 4.5 4.4 4.4 4.4 4.4 4.5 4.5 4.7 4.7 4.8 4.9 5.0 5.1
5.0 5.0 5.1 5.3 5.3 5.4 5.5 5.5 5.4 5.4 5.4 5.3 5.2 5.2 5.1 5.0 4.9 4.8 4.8 4.8 4.9 4.9 4.9 5.0 5.0 5.1 5.1 5.1 5.1 5.1 5.1 5.1 5.1 5.1 5.1 5.0 5.0 5.0 5.0 5.0 5.0 5.1 5.1 5.2
Wind_Speed
20 25 7 1 15 16 16 11 7 11 13 12 8 8 7 9 9 9 10 13 13 13 12 12 12 12 13 13 12 10 12 11 10 9 10 10 10 10 10 12 11 11 3 12
19 22 12 8 14 12 8 9 10 10 10 10 13 9 8 9 9 10 9 11 12 13 13 13 13 11 12 12 12 11 12 11 9 10 10 11 11 11 12 12 13 13 14 13
11 18 8 4 17 17 8 5 6 7 13 17 15 11 11 11 11 10 9 10 12 11 11 11 11 11 12 11 9 11 12 10 9 10 11 10 12 13 13 12 12 13 12 12
12 15 11 7 4 0 3 1 8 9 12 8 11 13 14 12 11 10 9 8 9 9 10 9 10 10 10 12 12 11 12 11 10 11 12 12 12 14 12 11 12 11 11 11
6 10 7 12 6 3 5 6 11 9 11 6 10 9 9 8 10 9 8 7 6 8 8 8 10 10 11 13 11 12 13 13 12 13 15 13 11 15 11 10 11 11 11 11
9 3 5 9 8 4 7 4 11 12 12 14 7 5 4 8 10 10 9 6 7 6 6 5 8 10 13 13 13 13 13 14 11 12 12 11 12 13 11 11 11 9 12 13
7 3 8 13 9 8 7 5 11 11 11 12 5 5 11 10 10 8 7 7 6 7 7 8 9 8 12 13 14 12 12 11 12 13 13 13 14 12 11 10 11 12 13 13
5 3 3 19 5 6 6 5 9 10 9 10 11 11 10 9 8 7 6 6 7 5 9 10 11 11 14 14 11 11 13 14 13 13 11 11 13 11 11 10 12 12 11 10
6 4 10 12 10 9 9 8 9 9 9 10 10 10 10 9 9 8 6 7 8 10 12 12 13 12 13 12 12 13 14 15 14 14 13 12 12 10 8 9 8 8 7 8
3 7 10 10 9 10 10 10 10 10 10 10 11 9 10 8 8 9 9 9 9 12 13 13 13 13 13 11 12 13 14 14 13 13 13 13 11 9 9 7 8 7 6 7
4 5 5 10 9 8 10 10 11 11 11 10 9 10 10 8 8 8 8 8 10 11 12 13 13 13 12 11 11 11 11 11 11 11 13 13 13 10 10 12 12 7 8 8
3 7 5 7 8 10 9 10 9 11 11 11 10 10 10 9 9 9 9 9 10 12 12 12 13 12 12 12 10 10 10 8 7 7 8 8 9 10 21 21 21 20 20 12
2 8 11 8 9 8 9 10 11 11 11 10 10 10 10 10 10 11 10 10 10 11 11 11 12 13 12 12 11 11 9 8 7 8 7 7 6 6 7 11 19 18 18 17
1 3 7 7 5 6 8 9 10 11 10 9 9 9 10 10 10 11 11 10 10 11 11 11 12 12 10 9 9 9 10 11 7 6 6 6 6 5 4 3 5 6 11 11
8 7 9 6 5 5 5 5 7 8 8 9 8 9 9 10 10 10 9 9 10 11 11 11 11 11 10 8 10 10 7 6 6 6 6 6 5 5 5 5 5 5 5 6
4 4 5 6 5 5 5 6 7 8 8 8 8 9 9 10 10 10 11 11 9 9 10 10 10 9 9 8 6 6 7 8 7 5 5 5 5 5 5 5 5 6 5 6
2 1 2 3 4 6 7 7 7 7 8 8 8 8 9 10 10 10 9 9 9 9 9 9 8 7 8 8 7 5 4 5 5 5 5 4 4 5 4 5 5 5 6 6
6 6 7 5 4 5 7 8 8 10 10 10 8 8 9 9 8 7 6 6 7 8 9 9 8 7 8 8 7 5 4 5 5 4 5 5 4 5 5 5 5 4 5 4
8 7 7 7 7 7 7 8 9 9 8 7 8 8 8 7 6 6 4 3 4 7 8 7 8 8 8 9 8 4 5 4 4 4 4 2 4 4 4 4 4 4 4 4
7 7 9 9 10 9 9 8 8 8 7 7 6 7 7 7 5 5 6 8 7 5 6 7 5 6 6 7 8 5 4 4 4 4 4 4 4 4 4 4 4 4 4 3
9 9 9 9 9 9 8 7 7 7 6 6 6 6 5 5 4 5 2 3 6 5 3 5 7 7 6 7 5 5 5 4 4 4 3 3 2 3 3 3 3 3 3 3
8 9 9 9 8 8 7 7 7 6 6 6 5 4 3 4 2 4 4 6 4 6 4 5 6 8 7 11 5 5 4 4 3 3 3 3 3 2 2 3 3 3 3 3
8 8 8 7 7 7 6 6 5 5 5 4 3 3 4 4 4 4 1 3 2 5 3 5 5 6 8 4 4 4 4 3 3 3 3 3 3 3 3 3 4 4 3 3
8 7 7 6 6 5 4 4 4 4 3 3 3 2 5 2 1 2 3 4 2 4 4 4 4 5 8 3 3 3 3 3 3 3 3 1 3 2 3 3 3 4 3 3
7 6 5 4 4 3 3 3 3 3 3 2 1 3 2 2 4 2 0 2 2 5 1 6 1 4 5 3 3 3 4 4 3 5 5 4 4 4 4 4 3 4 5 4
6 3 3 2 3 1 1 3 4 2 3 3 3 2 1 2 0 3 3 1 3 1 5 2 3 3 5 4 3 4 4 5 4 4 4 5 5 5 5 5 5 5 6 7
3 2 3 3 1 2 4 4 4 3 2 4 4 3 3 3 2 3 0 3 4 3 4 4 3 3 4 5 6 5 5 5 5 5 6 6 6 6 6 7 7 8 8 9
Wind_Direction
285 278 277 148 275 213 218 223 261 292 308 320 13 25 143 96 84 68 52 50 25 18 17 21 28 36 44 48 51 56 77 74 64 60 67 64 54 47 56 62 53 49 65 62
291 263 239 296 311 282 255 276 275 277 277 353 52 90 122 104 88 77 64 62 47 23 22 21 32 40 48 49 52 60 67 68 65 61 59 67 62 57 56 56 57 69 65 67
291 219 186 233 248 246 230 263 278 318 1 7 30 33 99 96 80 81 64 63 68 37 27 21 30 33 51 49 58 61 65 61 69 79 73 66 76 66 56 54 55 59 64 66
274 175 193 154 304 351 281 77 27 19 40 38 85 63 53 56 82 75 58 49 61 58 37 28 46 44 59 57 52 49 63 62 62 73 75 67 70 80 72 65 62 58 61 62
278 170 122 158 81 42 330 92 51 359 0 112 133 113 61 50 61 64 64 50 33 63 59 29 55 62 63 63 58 63 56 50 50 59 73 72 70 74 79 78 75 71 60 51
301 200 161 110 85 354 304 177 11 357 0 345 193 229 104 87 77 67 51 34 42 60 62 68 43 59 70 65 55 58 53 55 50 59 65 74 75 77 74 80 82 80 75 60
264 285 99 6 347 312 262 34 2 11 14 21 50 46 106 95 81 73 70 66 34 46 60 68 78 79 73 65 64 69 68 67 61 65 67 63 66 66 69 73 78 75 72 67
238 262 144 354 49 8 343 16 22 35 46 78 93 89 83 83 78 71 80 89 101 81 67 59 64 72 74 74 84 70 68 66 61 64 61 67 67 66 67 69 76 75 71 67
35 49 46 33 50 25 14 43 43 68 79 93 90 81 77 70 61 49 56 81 78 74 70 65 64 70 73 70 69 71 75 76 70 63 57 49 60 60 63 65 69 72 70 69
307 42 52 39 48 46 44 61 64 77 86 92 95 87 77 69 58 50 35 49 65 72 69 62 56 63 68 71 79 81 80 76 69 68 71 72 67 53 43 51 65 56 62 70
107 107 97 62 39 56 73 80 79 72 79 86 86 78 79 72 61 54 49 49 59 71 65 61 57 51 56 63 70 77 79 83 85 84 83 73 58 53 64 55 47 59 62 48
22 1 68 51 47 44 63 70 80 87 85 79 83 83 77 68 63 61 54 58 67 63 64 60 59 53 34 31 60 79 77 69 66 79 89 89 85 76 60 62 59 56 52 58
35 69 91 88 55 62 79 81 72 72 74 84 83 87 86 83 77 75 70 66 61 63 66 63 58 53 45 45 47 50 61 74 69 61 61 60 78 104 98 77 72 58 61 59
125 96 106 19 92 64 77 89 88 87 87 87 91 92 96 93 82 70 64 62 61 61 59 57 55 47 37 41 60 71 69 56 61 66 72 71 71 68 74 98 89 97 65 62
51 59 84 114 104 89 93 87 85 82 81 76 71 81 82 82 77 74 76 77 69 59 51 48 46 37 16 44 52 46 59 66 76 79 72 73 77 74 74 74 72 73 113 93
83 74 76 66 62 61 63 68 84 85 87 87 86 86 88 86 79 67 54 40 55 54 48 46 41 23 11 5 50 77 68 46 50 62 65 65 61 62 66 67 71 69 56 28
226 92 60 61 48 43 51 54 74 88 90 92 89 87 90 90 82 72 63 58 58 53 52 44 40 26 14 8 7 54 72 73 39 61 56 58 64 65 69 70 70 72 65 34
47 32 27 53 87 96 77 69 70 71 68 70 73 72 66 69 79 74 68 80 83 61 46 35 22 36 36 13 8 38 49 52 52 51 51 51 59 65 65 68 67 68 81 91
44 61 63 65 78 88 89 81 78 87 91 90 91 83 78 72 71 68 65 64 69 58 40 26 24 30 34 16 349 44 47 45 54 65 73 86 68 57 56 62 64 57 49 46
79 74 76 70 66 82 90 88 86 80 76 82 89 84 81 72 66 75 79 71 50 35 26 14 10 42 31 35 345 49 40 53 53 55 28 45 50 74 111 76 30 40 43 46
90 93 96 97 93 89 90 99 99 87 72 60 71 68 66 61 41 342 320 50 53 24 9 47 36 2 36 357 8 33 31 37 34 35 29 47 69 41 39 31 30 16 18 12
106 105 104 103 99 95 86 84 89 88 83 80 76 77 92 83 87 73 41 7 67 348 358 36 34 18 4 324 30 25 28 23 22 18 31 19 17 13 17 9 352 358 342 337
114 109 106 105 100 97 95 93 95 97 98 99 87 52 25 18 2 334 331 83 10 36 348 51 27 2 338 354 16 15 19 7 6 8 359 353 343 348 338 346 347 325 324 322
116 115 108 106 128 136 122 129 135 111 91 104 83 1 325 351 76 53 100 88 81 357 29 38 30 351 318 8 13 14 349 359 341 336 342 225 300 314 298 323 308 313 312 269
119 126 133 164 174 151 130 146 159 162 202 213 166 184 271 3 321 77 358 107 157 272 294 134 169 296 291 329 341 328 321 312 346 331 315 305 302 296 291 292 289 290 314 306
164 164 122 12 8 12 186 192 265 198 236 222 207 195 247 293 82 247 200 312 273 238 274 154 250 227 294 285 293 303 301 301 286 253 276 290 282 281 278 279 282 284 284 284
130 168 159 165 103 4 356 349 303 299 197 273 291 168 214 225 214 283 285 257 252 260 275 271 265 246 288 306 299 285 278 281 281 281 296 296 288 282 281 279 280 284 290 287